Regional Weather Roundup
Issued by NWS Cleveland, OH

Home | Current Version | Previous Version | Graphics & Text | Print | Product List | Glossary On
Versions: 1 2 3 4 5 6 7 8 9 10 11 12 13 14 15 16 17 18 19 20 21 22 23 24 25 26 27 28 29 30 31 32 33 34 35 36 37 38 39 40 41 42 43 44 45 46 47 48 49 50
000
ASUS41 KCLE 041702
RWRCLE
OHIO REGIONAL WEATHER ROUNDUP
NATIONAL WEATHER SERVICE CLEVELAND, OH
100 PM EDT SAT JUL 04 2015

NOTE: "FAIR" INDICATES FEW OR NO CLOUDS BELOW 12,000 FEET WITH NO
SIGNIFICANT WEATHER AND/OR OBSTRUCTIONS TO VISIBILITY.

OHZ001>008-015>018-024>027-034-035-043-044-041800-
   NORTHWEST OHIO

CITY           SKY/WX    TMP DP  RH WIND       PRES   REMARKS
DEFIANCE       MOSUNNY   77  57  50 SW3       30.01S
FINDLAY        SUNNY     76  53  44 N5        30.00S
TOLEDO EXPRESS SUNNY     75  50  41 VRB3      30.00S
TOLEDO EXEC    SUNNY     76  50  40 VRB3      30.01S
LIMA           SUNNY     74  56  53 CALM      30.02S
$$

OHZ009>014-019>023-028>033-038-089-041800-
   NORTHEAST OHIO

CITY           SKY/WX    TMP DP  RH WIND       PRES   REMARKS
CLE-HOPKINS    SUNNY     73  51  46 VRB5      30.01F
CLE-LAKEFRONT  SUNNY     72  55  55 N6        29.99S
CUY CO. ARPT   SUNNY     73  55  53 N9        30.01S
LORAIN-ELYRIA  SUNNY     73  55  53 VRB5      30.01S
ASHTABULA      SUNNY     72  50  45 NW6       30.00S
AKRON-CANTON   MOSUNNY   76  55  48 VRB3      29.99S
WOOSTER        SUNNY     74  56  53 N8        30.01S
MANSFIELD      SUNNY     74  54  49 VRB3      30.02S
YOUNGSTOWN     MOSUNNY   75  55  49 NW8       29.98S
$$

OHZ042-051>053-060>062-070>072-077>081-041800-
  SOUTHWEST OHIO

CITY           SKY/WX    TMP DP  RH WIND       PRES   REMARKS
CINC-COVINGTON MOSUNNY   78  63  59 VRB5      30.02F
CINC-LUNKEN    SUNNY     77  61  57 CALM      30.02S
HAMILTON       SUNNY     78  60  53 MISG      30.03S
DAYTON         MOSUNNY   76  58  53 VRB6      30.04S
WRIGHT-PAT AFB MOSUNNY   74  55  49 NW6       30.02S
DAYTON GENERAL SUNNY     75  54  47 W3        30.02S
WILMINGTON     SUNNY     75  50  41 NW5       30.02S
$$

OHZ036-037-039>041-045>050-054>059-063>069-073>076-082>088-041800-
  CENTRAL AND SOUTHEAST OHIO

CITY           SKY/WX    TMP DP  RH WIND       PRES   REMARKS
COLUMBUS       MOSUNNY   75  57  53 VRB6      30.00R
OSU AIRPORT    SUNNY     74  54  49 MISG      30.01R
BOLTON FIELD   SUNNY     73  57  56 NW6       30.02R
RICKENBACK AFB NOT AVBL
NEWARK         PTSUNNY   77  59  53 VRB6      29.99S
MARION         SUNNY     74  54  49 N8        30.02R
LANCASTER      SUNNY     76  60  57 VRB3      30.01R
ZANESVILLE     NOT AVBL
NEW PHILLY     SUNNY     75  60  59 VRB5      29.99S
$$


USA.gov is the U.S. government's official web portal to all federal, state and local government web resources and services.